HULIANWANG DIGUI-153

导读 | 豆包AI

HULIANWANG DIGUI-153是中国于2026年1月19日发射的低轨卫星,属于低轨互联网星座系统,该系统由中国主导建设,旨在为全球用户提供泛在互联、高速稳定的网络通信服务。该卫星发射成功后,将进一步推动低轨互联网星座的组网进程,提升星座服务覆盖能力与服务稳定性。

基本信息
目录编号:
67529
目录名称:
HULIANWANG DIGUI-153
国际标识:
2026-013H
轨道中心:
EARTH
卫星名称:
HULIANWANG DIGUI-153
卫星全名:
HULIANWANG DIGUI-153
卫星状态:
在轨 (已飞行75 天)
发射日期:
2026-01-19 UTC
国别 :
中国 (CN)
星等 :
--
轨道信息
数据来源 国际轨道数据 AOE轨道数据
星历时间 2026-04-04T03:45:28+0800
4小时前
查看轨道信息
2026-03-31T09:00:00+0800
3天前
查看轨道信息
半长轴 7527.452km 7527.449km
偏心率 0.0000158 0.000008
轨道倾角 50.004° 50.002°
近地点辐角 186.774° 58.471°
升交点赤经 262.042° 275.607°
平近点角 173.313° 193.404°
近地点 1149.196km 1149.251km
远地点 1149.434km 1149.373km
周期 108.326分钟 108.326分钟
每日圈数 13.29324 13.293247
详细信息
使用方式:
暂无
2D轨道图
3D轨道图
轨道高度分析图
轨道倾角分析图
轨道综合分析图
查看轨道综合分析图